Wind_Speed
42 43 43 44 44 45 47 48 48 48 49 50 51 51 52 52 52 52 52 52 53 52 52 52 52 52 52 52 51 52 53 53 53 52 52 52 52 52 52 52 51 51 50
43 44 44 45 45 46 47 48 49 49 50 50 51 52 53 53 54 53 53 53 54 53 53 53 53 53 53 53 53 53 54 54 55 54 54 54 54 54 53 53 53 52 52
44 44 45 46 46 47 48 49 50 50 51 51 51 51 52 53 54 54 53 54 54 54 54 54 54 54 54 55 55 55 55 55 55 55 55 55 54 55 55 55 55 54 54
45 46 47 47 48 48 49 50 51 52 52 51 51 51 52 53 53 54 54 54 55 55 55 56 56 55 56 56 56 56 56 56 56 56 56 56 55 56 56 56 56 56 55
47 47 47 48 49 50 50 50 51 52 53 52 52 51 52 53 54 54 54 54 55 55 56 57 57 57 57 57 57 57 58 58 58 58 58 58 57 57 57 57 57 57 56
48 48 48 49 50 50 50 50 51 52 52 53 53 52 53 53 54 55 55 55 56 55 56 57 57 57 58 58 58 59 59 59 59 59 59 58 58 58 58 58 58 58 58
49 49 49 49 50 51 52 51 51 51 52 53 53 54 54 54 55 56 57 57 57 57 57 58 58 58 59 59 60 59 59 58 58 58 58 57 57 57 58 59 59 58 58
49 50 49 50 50 51 52 52 52 52 52 52 53 54 54 55 56 57 58 58 58 58 59 59 60 59 59 60 59 59 57 57 57 58 57 57 57 57 57 58 58 58 58
48 49 50 49 50 51 51 51 51 52 52 52 53 53 54 55 55 56 57 57 57 57 58 58 59 60 60 60 60 59 58 57 57 57 57 57 56 56 56 56 56 57 57
47 48 48 49 49 50 51 51 52 52 51 52 53 54 54 55 56 56 57 57 57 58 58 57 58 59 59 59 59 58 58 58 58 58 58 57 57 56 56 57 57 57 57
46 47 47 48 48 49 50 51 51 52 52 52 53 53 54 55 56 56 57 57 57 57 57 56 56 56 57 58 58 58 58 58 59 59 59 59 58 58 58 58 57 58 59
45 46 47 47 47 48 49 50 50 51 51 52 53 53 53 54 54 54 54 55 56 56 56 56 56 55 56 57 58 58 58 59 59 58 58 59 58 59 59 59 59 59 58
44 45 46 47 47 47 48 49 50 51 51 52 53 53 53 54 54 54 54 54 55 55 55 55 55 55 55 56 57 58 58 58 58 58 58 58 58 58 58 59 59 58 58
45 46 46 47 47 47 48 48 50 50 51 51 52 53 53 54 54 54 54 54 54 54 54 55 55 54 54 55 56 57 58 58 58 57 57 57 58 57 58 57 57 57 57
43 44 45 46 46 46 47 47 48 49 50 51 51 52 52 52 52 53 53 53 53 53 53 53 53 54 54 55 55 56 56 56 56 56 56 57 57 57 57 57 56 56 56
41 42 43 43 44 44 45 46 46 47 48 48 49 50 50 50 50 51 51 50 51 52 52 52 52 53 53 53 53 54 54 53 54 54 54 54 54 54 54 55 55 55 55
40 41 41 41 42 42 43 44 44 45 46 46 46 46 46 46 48 49 49 49 50 50 50 50 50 51 51 51 52 53 53 53 52 53 53 53 53 53 53 53 53 53 53
38 39 39 40 40 41 42 43 43 43 43 44 44 44 45 45 46 47 48 48 49 49 48 48 48 49 49 50 50 50 50 51 51 51 51 51 52 52 53 52 51 51 52
37 38 38 39 39 40 41 42 42 42 42 42 43 44 45 45 45 46 47 47 48 48 48 47 47 47 47 47 47 48 48 48 48 48 49 50 51 52 51 51 51 51 51
39 39 39 39 39 39 39 39 39 40 40 41 42 42 43 43 44 44 44 44 45 45 45 45 45 45 45 45 45 46 46 46 46 46 47 48 50 51 51 50 50 50 50
38 38 39 38 38 37 37 37 38 37 37 38 39 39 39 40 40 41 41 41 42 42 42 42 42 43 43 43 43 44 44 44 45 45 46 46 48 49 49 50 49 49 49
36 36 36 36 36 36 36 36 36 36 36 36 36 37 37 37 38 38 38 39 40 41 41 41 40 41 41 42 42 42 43 43 43 44 45 45 46 47 48 48 48 48 48
33 33 33 33 34 34 35 35 35 35 35 35 35 35 35 35 36 36 36 36 37 38 38 39 39 39 40 40 41 41 41 42 42 43 43 43 44 44 45 45 46 46 46
32 31 31 32 32 32 32 32 33 33 34 34 34 35 35 35 35 35 35 36 37 37 38 38 39 39 39 39 40 40 40 40 40 41 41 42 42 41 41 42 42 43 43
31 31 30 30 31 31 31 31 32 32 33 33 33 34 34 34 34 35 35 35 36 36 37 38 38 38 38 38 37 37 38 38 38 39 39 39 39 39 39 39 40 40 41
31 30 30 30 30 30 31 31 30 30 30 31 31 32 32 32 33 33 34 34 35 35 35 35 36 36 36 36 36 36 36 36 36 37 37 37 37 37 37 37 37 38 38
Wind_Direction
259 260 260 260 260 260 259 258 259 259 258 258 257 256 256 256 257 257 257 257 257 257 257 257 257 258 259 259 259 258 258 258 258 259 260 260 260 261 262 264 265 267 267
260 260 261 261 260 260 259 259 259 259 259 259 258 257 257 257 257 257 257 257 257 257 257 257 258 259 260 260 260 258 258 258 259 259 260 260 260 261 262 263 264 266 267
262 261 262 262 262 261 260 260 260 260 259 258 258 258 258 257 257 257 257 257 257 257 257 257 258 258 259 260 260 259 259 259 259 259 260 260 261 262 263 263 264 265 266
263 264 263 262 263 263 262 261 260 260 259 259 258 258 258 257 257 256 257 258 258 258 258 258 257 258 259 260 260 260 259 259 259 260 260 260 261 262 263 264 264 265 266
264 265 264 263 263 263 263 263 261 261 260 260 259 259 259 258 257 256 257 258 258 258 258 258 258 259 260 261 261 261 261 261 260 260 260 260 262 263 264 265 265 265 266
265 265 265 264 263 263 263 263 262 261 260 260 259 259 260 259 258 257 257 257 258 258 258 258 258 259 260 261 261 262 262 261 260 260 260 260 262 263 264 264 265 265 265
265 265 266 265 264 263 263 263 263 261 260 260 259 259 260 259 259 258 258 258 258 258 259 259 259 259 260 262 262 262 262 261 261 260 259 260 262 262 263 264 264 265 264
265 265 266 265 264 264 264 263 262 262 261 260 260 260 260 260 260 260 259 259 259 259 259 260 260 260 260 260 261 261 262 261 260 259 259 260 261 262 262 263 264 264 264
266 267 267 267 265 265 264 264 263 262 262 261 260 261 261 260 260 260 260 261 260 260 260 261 261 260 260 259 260 260 260 260 259 259 259 260 261 261 261 262 263 263 264
268 268 269 268 267 266 265 264 263 263 263 263 262 262 262 262 261 261 261 260 260 260 260 260 260 260 259 258 259 259 259 259 259 259 259 260 261 261 260 261 262 263 264
270 269 270 270 269 268 266 264 264 263 263 263 263 264 264 263 262 262 261 260 260 259 259 259 260 259 259 258 258 259 259 259 259 259 259 260 261 261 262 262 263 263 264
272 271 270 270 270 269 267 265 265 264 264 264 264 264 264 263 262 261 260 260 259 259 258 258 259 259 259 259 259 259 259 259 259 258 259 260 260 261 262 263 263 264 265
272 272 271 270 270 270 268 266 265 266 265 264 264 264 264 263 262 261 260 260 259 259 259 259 258 258 259 259 259 258 259 258 257 258 259 260 260 261 262 262 263 263 264
272 272 272 271 271 271 270 268 267 266 265 264 264 264 264 263 262 261 260 259 259 259 260 259 259 259 259 259 259 258 258 258 256 257 259 259 260 260 261 262 262 262 262
272 271 271 271 272 271 270 269 268 266 265 265 264 264 263 262 262 260 259 258 259 260 260 259 259 260 260 260 259 259 258 256 256 257 258 258 259 260 260 260 261 262 262
271 271 271 272 272 272 271 271 269 268 266 265 264 264 263 262 260 259 258 258 259 260 260 260 260 260 260 260 259 259 257 256 258 258 258 258 259 260 260 260 260 261 262
274 273 274 273 273 273 273 272 271 270 268 266 265 263 262 261 260 258 258 259 259 260 261 260 260 260 260 259 259 258 256 256 258 258 257 257 258 258 259 260 261 261 262
276 276 276 275 275 275 275 274 272 270 269 267 266 265 265 263 261 259 259 260 260 260 261 260 260 260 259 259 258 257 256 256 258 259 258 257 257 257 258 260 261 262 262
277 278 277 277 277 277 276 275 273 271 270 268 267 267 266 264 262 261 260 260 260 260 260 259 258 258 259 259 258 256 256 257 258 258 257 257 257 257 258 260 261 261 261
278 279 279 279 279 278 277 276 274 273 272 271 269 268 267 264 263 262 261 260 260 260 260 259 258 258 257 257 256 255 256 257 258 257 257 257 257 257 258 259 261 262 262
279 280 280 280 281 280 279 278 276 275 274 273 271 270 268 266 264 262 261 259 259 259 259 259 258 258 257 256 255 256 256 256 257 257 257 258 258 258 259 260 261 262 263
281 281 281 281 280 280 280 279 278 276 276 274 272 271 270 268 265 263 262 260 259 259 258 258 258 257 257 257 257 258 257 257 257 257 258 259 260 261 261 262 262 262 262
281 281 281 281 282 282 281 281 279 277 276 274 272 271 270 268 266 264 262 261 261 259 258 258 258 257 257 258 258 259 260 259 259 259 260 261 262 262 262 262 262 263 263
281 281 282 282 283 283 283 283 281 279 276 274 272 271 269 267 266 264 262 262 261 260 260 260 259 258 258 258 258 259 259 258 258 259 260 260 261 262 262 262 262 262 263
282 282 282 282 283 283 284 285 284 281 279 277 274 272 270 267 266 264 263 262 261 261 261 260 259 258 258 257 257 257 257 257 258 258 258 259 260 261 261 261 262 262 263
283 282 282 283 283 284 284 285 284 283 282 280 277 274 271 269 266 264 262 261 260 259 259 258 258 257 257 257 257 257 257 257 258 258 258 259 259 260 260 261 262 262 263
Height
5622 5623 5624 5625 5626 5626 5627 5628 5629 5630 5631 5632 5633 5635 5637 5638 5640 5642 5644 5646 5648 5649 5651 5653 5655 5656 5658 5660 5661 5663 5665 5667 5670 5673 5674 5676 5677 5678 5679 5680 5680 5681 5681
5610 5611 5612 5612 5613 5613 5614 5615 5615 5616 5617 5618 5619 5621 5622 5624 5626 5628 5630 5632 5633 5635 5637 5639 5640 5642 5644 5646 5647 5649 5651 5653 5655 5658 5660 5661 5663 5664 5665 5666 5667 5667 5668
5597 5597 5598 5599 5599 5600 5600 5601 5601 5602 5603 5604 5605 5606 5608 5610 5611 5613 5615 5617 5619 5620 5622 5624 5626 5628 5630 5631 5633 5634 5636 5638 5640 5642 5645 5646 5648 5649 5650 5651 5652 5653 5653
5583 5584 5584 5585 5585 5585 5585 5586 5587 5587 5588 5589 5590 5592 5593 5595 5596 5598 5600 5602 5603 5605 5607 5609 5611 5613 5615 5616 5617 5619 5620 5622 5624 5626 5629 5631 5632 5633 5634 5635 5637 5637 5638
5570 5570 5570 5570 5571 5571 5571 5571 5572 5572 5573 5574 5575 5576 5578 5579 5581 5583 5585 5587 5588 5590 5592 5593 5595 5597 5599 5600 5602 5603 5604 5606 5608 5610 5612 5615 5616 5617 5618 5619 5620 5621 5622
5555 5555 5555 5556 5556 5556 5556 5556 5556 5557 5558 5558 5559 5561 5562 5564 5566 5567 5569 5571 5572 5574 5576 5578 5580 5581 5583 5584 5585 5587 5588 5589 5592 5593 5596 5598 5600 5601 5602 5603 5604 5605 5607
5541 5541 5541 5540 5541 5541 5541 5541 5541 5541 5542 5543 5544 5546 5547 5548 5550 5551 5553 5555 5557 5558 5560 5561 5563 5565 5566 5568 5569 5570 5571 5572 5575 5577 5579 5581 5583 5585 5586 5587 5587 5588 5590
5526 5526 5525 5525 5525 5525 5525 5525 5525 5526 5527 5528 5529 5530 5531 5533 5534 5535 5536 5538 5540 5541 5543 5545 5547 5548 5550 5551 5552 5554 5555 5557 5558 5560 5563 5565 5566 5568 5569 5571 5571 5572 5574
5511 5511 5510 5510 5509 5509 5509 5509 5510 5510 5511 5512 5513 5514 5515 5516 5517 5518 5519 5521 5523 5525 5526 5528 5529 5531 5533 5534 5535 5538 5539 5541 5542 5544 5546 5549 5550 5551 5552 5553 5554 5555 5557
5497 5496 5495 5495 5494 5494 5494 5494 5494 5495 5496 5496 5497 5498 5499 5500 5501 5501 5502 5504 5506 5508 5509 5511 5512 5514 5515 5516 5518 5521 5523 5525 5526 5528 5530 5532 5533 5534 5536 5537 5538 5539 5541
5482 5482 5481 5480 5479 5479 5479 5479 5479 5480 5480 5480 5481 5482 5482 5483 5483 5484 5485 5486 5488 5490 5492 5494 5495 5497 5498 5499 5501 5504 5506 5507 5509 5511 5514 5516 5517 5518 5520 5521 5522 5524 5525
5469 5467 5466 5465 5464 5464 5463 5463 5463 5463 5464 5464 5465 5465 5466 5466 5466 5467 5468 5469 5470 5472 5475 5477 5478 5480 5481 5483 5484 5487 5488 5490 5492 5495 5497 5499 5500 5502 5504 5505 5506 5507 5508
5455 5453 5452 5451 5450 5449 5448 5448 5447 5447 5447 5448 5448 5449 5449 5449 5450 5450 5451 5452 5453 5455 5457 5459 5461 5462 5464 5466 5468 5469 5470 5472 5475 5478 5480 5482 5484 5485 5487 5488 5490 5491 5492
5441 5440 5438 5437 5436 5435 5433 5432 5432 5432 5432 5432 5432 5433 5433 5433 5433 5434 5435 5436 5437 5438 5440 5442 5444 5445 5447 5449 5451 5452 5453 5456 5459 5461 5463 5465 5467 5469 5470 5472 5473 5474 5475
5426 5425 5424 5423 5421 5420 5419 5417 5417 5416 5416 5416 5416 5416 5417 5417 5417 5418 5419 5420 5421 5423 5424 5426 5428 5429 5431 5432 5434 5435 5437 5440 5442 5445 5446 5448 5450 5452 5454 5455 5456 5458 5459
5413 5412 5410 5409 5407 5406 5404 5403 5401 5401 5400 5400 5400 5400 5401 5402 5402 5403 5404 5405 5406 5407 5408 5410 5412 5413 5415 5416 5417 5419 5422 5424 5426 5428 5430 5432 5434 5436 5437 5439 5440 5442 5443
5400 5398 5397 5395 5394 5392 5391 5389 5388 5387 5385 5385 5385 5385 5385 5386 5387 5388 5389 5390 5391 5392 5393 5395 5396 5397 5399 5400 5401 5403 5406 5408 5410 5411 5413 5415 5417 5419 5421 5423 5425 5426 5427
5387 5385 5384 5382 5380 5379 5377 5375 5374 5373 5372 5370 5370 5370 5371 5371 5372 5373 5374 5375 5376 5377 5378 5379 5380 5382 5383 5384 5386 5388 5389 5391 5393 5395 5397 5399 5402 5404 5406 5408 5409 5410 5411
5375 5373 5371 5369 5367 5365 5363 5362 5360 5359 5358 5357 5357 5356 5356 5357 5357 5358 5359 5360 5361 5362 5363 5364 5366 5367 5368 5369 5371 5373 5374 5376 5378 5379 5381 5384 5386 5389 5391 5392 5394 5395 5396
5362 5360 5358 5356 5354 5352 5350 5349 5347 5346 5344 5343 5343 5343 5342 5342 5343 5343 5344 5345 5346 5347 5348 5350 5351 5353 5354 5355 5357 5359 5360 5362 5363 5365 5367 5369 5371 5373 5376 5378 5379 5380 5381
5350 5348 5346 5344 5342 5340 5338 5336 5334 5333 5332 5330 5329 5329 5328 5329 5329 5330 5330 5331 5333 5334 5335 5336 5338 5339 5341 5342 5344 5345 5347 5348 5350 5351 5353 5355 5357 5359 5361 5362 5364 5365 5365
5338 5336 5333 5331 5330 5328 5326 5324 5322 5321 5319 5318 5317 5316 5316 5316 5316 5317 5318 5319 5319 5320 5322 5323 5325 5326 5328 5329 5331 5332 5334 5335 5337 5338 5340 5341 5342 5344 5345 5347 5348 5349 5350
5326 5324 5322 5320 5318 5316 5314 5312 5310 5309 5307 5306 5305 5305 5304 5304 5305 5305 5306 5307 5308 5308 5309 5311 5312 5314 5315 5317 5318 5319 5321 5322 5323 5325 5326 5327 5328 5330 5331 5332 5334 5335 5336
5315 5313 5311 5309 5307 5305 5303 5301 5299 5297 5296 5295 5294 5294 5293 5293 5293 5293 5294 5295 5296 5297 5297 5299 5300 5301 5303 5304 5305 5307 5308 5309 5310 5312 5313 5314 5315 5316 5318 5319 5320 5321 5322
5304 5302 5300 5298 5296 5294 5292 5290 5288 5287 5285 5284 5283 5282 5281 5281 5281 5282 5282 5283 5284 5285 5285 5286 5287 5289 5290 5291 5293 5294 5295 5297 5298 5299 5300 5302 5303 5304 5305 5306 5307 5308 5309
5293 5291 5289 5288 5286 5284 5282 5280 5278 5276 5275 5273 5272 5271 5270 5270 5270 5270 5271 5272 5272 5273 5274 5274 5275 5276 5278 5279 5280 5282 5283 5284 5286 5287 5288 5289 5291 5292 5293 5294 5295 5296 5297